time, Switch, Flow(0), Analog(2)
yyyy/mm/dd HH:MM:SS.fff, True=FILTERED|False=TOTAL, L/min, V
2023/07/11 03:00:01.054, True, 4.643, 0.119402
2023/07/11 03:00:01.549, True, 4.717, 0.118410
2023/07/11 03:00:02.054, True, 4.643, 0.119936
2023/07/11 03:00:02.557, True, 4.652, 0.121157
2023/07/11 03:00:03.054, True, 4.371, 0.117266
2023/07/11 03:00:03.558, True, 4.310, 0.119326
2023/07/11 03:00:04.062, True, 3.648, 0.116732
2023/07/11 03:00:04.558, True, 3.370, 0.120241
2023/07/11 03:00:05.062, True, 3.647, 0.118868
2023/07/11 03:00:05.566, True, 3.654, 0.118868
2023/07/11 03:00:06.062, True, 3.700, 0.119020
2023/07/11 03:00:06.566, True, 3.316, 0.120165
2023/07/11 03:00:07.069, True, 3.648, 0.119020
2023/07/11 03:00:07.565, True, 3.372, 0.120394
2023/07/11 03:00:08.070, True, 3.645, 0.119173
2023/07/11 03:00:08.574, True, 3.316, 0.120089
2023/07/11 03:00:09.070, True, 3.370, 0.119707
2023/07/11 03:00:09.573, True, 3.648, 0.119249
2023/07/11 03:00:10.078, True, 3.315, 0.119554
2023/07/11 03:00:10.581, True, 3.648, 0.118334
2023/07/11 03:00:11.078, True, 3.369, 0.119402
2023/07/11 03:00:11.582, True, 3.648, 0.120851
2023/07/11 03:00:12.086, True, 3.647, 0.116960
2023/07/11 03:00:12.582, True, 3.370, 0.118791
2023/07/11 03:00:13.086, True, 3.316, 0.119326
2023/07/11 03:00:13.589, True, 3.648, 0.117647
2023/07/11 03:00:14.086, True, 3.372, 0.119020
2023/07/11 03:00:14.590, True, 3.645, 0.120546
2023/07/11 03:00:15.093, True, 3.655, 0.121843
2023/07/11 03:00:15.589, True, 3.362, 0.121462
2023/07/11 03:00:16.094, True, 3.648, 0.120241
2023/07/11 03:00:16.598, True, 3.648, 0.121233
2023/07/11 03:00:17.094, True, 3.706, 0.120012
2023/07/11 03:00:17.598, True, 3.647, 0.118181
2023/07/11 03:00:18.101, True, 3.316, 0.119936
2023/07/11 03:00:18.598, True, 3.707, 0.118791
2023/07/11 03:00:19.102, True, 3.648, 0.118715
2023/07/11 03:00:19.606, True, 3.316, 0.122225
2023/07/11 03:00:20.102, True, 3.706, 0.119326
2023/07/11 03:00:20.606, True, 3.316, 0.120928
2023/07/11 03:00:21.110, True, 3.648, 0.121691
2023/07/11 03:00:21.606, True, 3.369, 0.121462
2023/07/11 03:00:22.110, True, 3.319, 0.120928
2023/07/11 03:00:22.613, True, 3.645, 0.122683
2023/07/11 03:00:23.110, True, 3.706, 0.120623
2023/07/11 03:00:23.614, True, 3.315, 0.124056
2023/07/11 03:00:24.118, True, 3.654, 0.123598
2023/07/11 03:00:24.614, True, 3.700, 0.123522
2023/07/11 03:00:25.118, True, 3.647, 0.122683
2023/07/11 03:00:25.621, True, 3.317, 0.123751
2023/07/11 03:00:26.118, True, 3.371, 0.123064
2023/07/11 03:00:26.622, True, 3.649, 0.121538
2023/07/11 03:00:27.126, True, 3.313, 0.123827
2023/07/11 03:00:27.621, True, 3.707, 0.124819
2023/07/11 03:00:28.126, True, 3.647, 0.125582
2023/07/11 03:00:28.630, True, 3.648, 0.125200
2023/07/11 03:00:29.126, True, 3.371, 0.124361
2023/07/11 03:00:29.630, True, 3.646, 0.124361
2023/07/11 03:00:30.134, True, 3.654, 0.124590
2023/07/11 03:00:30.630, True, 3.364, 0.123140
2023/07/11 03:00:31.134, True, 3.649, 0.124285
2023/07/11 03:00:31.637, True, 3.646, 0.125429
2023/07/11 03:00:32.134, True, 3.371, 0.125658
2023/07/11 03:00:32.637, True, 3.646, 0.126040
2023/07/11 03:00:33.141, True, 3.648, 0.123980
2023/07/11 03:00:33.646, True, 3.648, 0.125887
2023/07/11 03:00:34.141, True, 3.368, 0.125963
2023/07/11 03:00:34.646, True, 3.648, 0.125124
2023/07/11 03:00:35.150, True, 3.652, 0.124895
2023/07/11 03:00:35.645, True, 3.366, 0.125353
2023/07/11 03:00:36.149, True, 3.647, 0.125582
2023/07/11 03:00:36.654, True, 3.649, 0.122911
2023/07/11 03:00:37.150, True, 3.368, 0.124666
2023/07/11 03:00:37.653, True, 3.651, 0.123522
2023/07/11 03:00:38.158, True, 3.314, 0.124971
2023/07/11 03:00:38.654, True, 3.713, 0.126802
2023/07/11 03:00:39.158, True, 3.641, 0.125963
2023/07/11 03:00:39.661, True, 3.648, 0.122301
2023/07/11 03:00:40.157, True, 3.707, 0.125124
2023/07/11 03:00:40.662, True, 3.647, 0.127718
2023/07/11 03:00:41.166, True, 3.650, 0.126040
2023/07/11 03:00:41.661, True, 3.367, 0.124590
2023/07/11 03:00:42.165, True, 3.647, 0.124285
2023/07/11 03:00:42.662, True, 3.370, 0.124132
2023/07/11 03:00:43.166, True, 3.318, 0.123980
2023/07/11 03:00:43.669, True, 3.645, 0.125734
2023/07/11 03:00:44.166, True, 3.370, 0.124208
2023/07/11 03:00:44.670, True, 3.652, 0.125048
2023/07/11 03:00:45.174, True, 3.312, 0.125887
2023/07/11 03:00:45.669, True, 3.369, 0.125124
2023/07/11 03:00:46.174, True, 3.321, 0.124437
2023/07/11 03:00:46.678, True, 3.647, 0.122377
2023/07/11 03:00:47.174, True, 3.703, 0.126650
2023/07/11 03:00:47.677, True, 3.652, 0.124132
2023/07/11 03:00:48.182, True, 3.315, 0.123980
2023/07/11 03:00:48.686, True, 3.644, 0.124056
2023/07/11 03:00:49.182, True, 3.368, 0.125048
2023/07/11 03:00:49.686, True, 3.654, 0.126345
2023/07/11 03:00:50.190, True, 3.642, 0.124285
2023/07/11 03:00:50.685, True, 3.706, 0.125429
2023/07/11 03:00:51.189, True, 3.648, 0.125277
2023/07/11 03:00:51.686, True, 3.369, 0.124361
2023/07/11 03:00:52.190, True, 3.655, 0.124590
2023/07/11 03:00:52.694, True, 3.645, 0.125963
2023/07/11 03:00:53.198, True, 3.317, 0.124590
2023/07/11 03:00:53.694, True, 3.703, 0.123751
2023/07/11 03:00:54.198, True, 3.645, 0.123369
2023/07/11 03:00:54.702, True, 3.648, 0.124361
2023/07/11 03:00:55.198, True, 3.369, 0.125277
2023/07/11 03:00:55.702, True, 3.650, 0.125505
2023/07/11 03:00:56.198, True, 3.367, 0.124819
2023/07/11 03:00:56.702, True, 3.648, 0.123064
2023/07/11 03:00:57.206, True, 3.316, 0.124590
2023/07/11 03:00:57.709, True, 3.316, 0.123827
2023/07/11 03:00:58.206, True, 3.369, 0.127184
2023/07/11 03:00:58.710, True, 2.984, 0.124971
2023/07/11 03:00:59.214, True, 3.647, 0.125505
2023/07/11 03:00:59.710, True, 3.371, 0.124208
2023/07/11 03:01:00.214, True, 3.315, 0.122530
2023/07/11 03:01:00.710, True, 3.369, 0.126421
2023/07/11 03:01:01.214, True, 3.648, 0.124208
2023/07/11 03:01:01.718, True, 3.316, 0.126726
2023/07/11 03:01:02.213, True, 3.369, 0.123522
2023/07/11 03:01:02.718, True, 3.648, 0.124666
2023/07/11 03:01:03.222, True, 3.316, 0.124361
2023/07/11 03:01:03.718, True, 3.369, 0.125582
2023/07/11 03:01:04.222, True, 3.648, 0.122759
2023/07/11 03:01:04.726, True, 3.316, 0.125048
2023/07/11 03:01:05.222, True, 3.370, 0.124743
2023/07/11 03:01:05.726, True, 3.321, 0.123064
2023/07/11 03:01:06.229, True, 3.642, 0.122454
2023/07/11 03:01:06.726, True, 3.369, 0.125887
2023/07/11 03:01:07.230, True, 3.649, 0.125505
2023/07/11 03:01:07.734, True, 3.316, 0.123445
2023/07/11 03:01:08.230, True, 3.706, 0.122835
2023/07/11 03:01:08.734, True, 3.647, 0.123980
2023/07/11 03:01:09.238, True, 3.316, 0.123751
2023/07/11 03:01:09.742, True, 3.648, 0.123140
2023/07/11 03:01:10.238, True, 3.370, 0.123140
2023/07/11 03:01:10.742, True, 3.648, 0.124590
2023/07/11 03:01:11.246, True, 3.316, 0.124895
2023/07/11 03:01:11.742, True, 3.706, 0.123903
2023/07/11 03:01:12.246, True, 3.647, 0.123140
2023/07/11 03:01:12.749, True, 3.315, 0.125734
2023/07/11 03:01:13.246, True, 3.371, 0.125658
2023/07/11 03:01:13.750, True, 3.647, 0.125200
2023/07/11 03:01:14.253, True, 3.647, 0.123369
2023/07/11 03:01:14.750, True, 3.369, 0.123140
2023/07/11 03:01:15.254, True, 3.647, 0.124437
2023/07/11 03:01:15.758, True, 3.653, 0.123140
2023/07/11 03:01:16.254, True, 3.364, 0.122225
2023/07/11 03:01:16.758, True, 3.649, 0.122988
2023/07/11 03:01:17.262, True, 3.316, 0.124590
2023/07/11 03:01:17.758, True, 3.706, 0.125124
2023/07/11 03:01:18.262, True, 3.316, 0.124971
2023/07/11 03:01:18.766, True, 3.647, 0.125505
2023/07/11 03:01:19.262, True, 3.370, 0.125048
2023/07/11 03:01:19.766, True, 3.319, 0.123064
2023/07/11 03:01:20.270, True, 3.644, 0.121843
2023/07/11 03:01:20.765, True, 3.370, 0.122530
2023/07/11 03:01:21.270, True, 3.316, 0.122530
2023/07/11 03:01:21.766, True, 3.706, 0.121920
2023/07/11 03:01:22.270, True, 3.650, 0.123903
2023/07/11 03:01:22.774, True, 3.314, 0.124285
2023/07/11 03:01:23.270, True, 3.369, 0.122606
2023/07/11 03:01:23.774, True, 3.648, 0.123140
2023/07/11 03:01:24.278, True, 3.647, 0.124208
2023/07/11 03:01:24.782, True, 3.319, 0.123445
2023/07/11 03:01:25.278, True, 3.704, 0.123445
2023/07/11 03:01:25.782, True, 3.648, 0.124514
2023/07/11 03:01:26.286, True, 3.315, 0.123140
2023/07/11 03:01:26.782, True, 3.370, 0.123064
2023/07/11 03:01:27.285, True, 3.316, 0.121386
2023/07/11 03:01:27.790, True, 3.316, 0.124514
2023/07/11 03:01:28.286, True, 3.369, 0.122377
2023/07/11 03:01:28.790, True, 3.648, 0.122377
2023/07/11 03:01:29.294, True, 3.320, 0.125124
2023/07/11 03:01:29.790, True, 3.365, 0.124437
2023/07/11 03:01:30.294, True, 3.649, 0.123827
2023/07/11 03:01:30.798, True, 3.650, 0.122148
2023/07/11 03:01:31.294, True, 3.366, 0.123751
2023/07/11 03:01:31.798, True, 3.648, 0.121843
2023/07/11 03:01:32.302, True, 3.316, 0.123140
2023/07/11 03:01:32.798, True, 3.369, 0.123827
2023/07/11 03:01:33.302, True, 3.316, 0.123751
2023/07/11 03:01:33.806, True, 3.315, 0.123140
2023/07/11 03:01:34.302, True, 3.370, 0.122072
2023/07/11 03:01:34.806, True, 3.316, 0.121386
2023/07/11 03:01:35.310, True, 3.648, 0.121309
2023/07/11 03:01:35.806, True, 3.370, 0.121996
2023/07/11 03:01:36.310, True, 3.316, 0.122454
2023/07/11 03:01:36.814, True, 3.648, 0.121843
2023/07/11 03:01:37.317, True, 3.647, 0.121996
2023/07/11 03:01:37.814, True, 3.369, 0.122301
2023/07/11 03:01:38.318, True, 3.648, 0.121157
2023/07/11 03:01:38.822, True, 3.315, 0.120241
2023/07/11 03:01:39.318, True, 3.370, 0.124361
2023/07/11 03:01:39.822, True, 3.317, 0.121157
2023/07/11 03:01:40.326, True, 3.651, 0.122606
2023/07/11 03:01:40.830, True, 3.312, 0.121691
2023/07/11 03:01:41.326, True, 3.369, 0.121767
2023/07/11 03:01:41.830, True, 2.986, 0.121233
2023/07/11 03:01:42.334, True, 3.315, 0.121614
2023/07/11 03:01:42.830, True, 3.707, 0.122835
2023/07/11 03:01:43.334, True, 3.315, 0.121691
2023/07/11 03:01:43.838, True, 3.648, 0.122530
2023/07/11 03:01:44.341, True, 3.316, 0.120775
2023/07/11 03:01:44.838, True, 3.369, 0.122606
2023/07/11 03:01:45.342, True, 3.319, 0.122606
2023/07/11 03:01:45.838, True, 3.366, 0.122225
2023/07/11 03:01:46.341, True, 3.648, 0.122835
2023/07/11 03:01:46.846, True, 3.316, 0.123674
2023/07/11 03:01:47.350, True, 3.647, 0.121080
2023/07/11 03:01:47.854, True, 3.316, 0.123217
2023/07/11 03:01:48.350, True, 3.370, 0.124361
2023/07/11 03:01:48.854, True, 3.647, 0.121157
2023/07/11 03:01:49.358, True, 3.316, 0.121843
2023/07/11 03:01:49.854, True, 3.706, 0.120699
2023/07/11 03:01:50.358, True, 3.648, 0.121538
2023/07/11 03:01:50.862, True, 3.318, 0.121538
2023/07/11 03:01:51.358, True, 3.705, 0.123293
2023/07/11 03:01:51.862, True, 3.647, 0.122377
2023/07/11 03:01:52.366, True, 3.647, 0.122988
2023/07/11 03:01:52.862, True, 3.370, 0.122759
2023/07/11 03:01:53.366, True, 3.647, 0.122759
2023/07/11 03:01:53.862, True, 3.370, 0.121004
2023/07/11 03:01:54.366, True, 3.317, 0.121614
2023/07/11 03:01:54.870, True, 3.647, 0.122072
2023/07/11 03:01:55.366, True, 3.370, 0.122988
2023/07/11 03:01:55.870, True, 3.648, 0.121080
2023/07/11 03:01:56.374, True, 3.317, 0.119860
2023/07/11 03:01:56.878, True, 3.648, 0.122377
2023/07/11 03:01:57.374, True, 3.369, 0.121843
2023/07/11 03:01:57.878, True, 3.317, 0.122683
2023/07/11 03:01:58.374, True, 3.711, 0.121462
2023/07/11 03:01:58.878, True, 3.642, 0.123369
2023/07/11 03:01:59.382, True, 3.320, 0.120928
2023/07/11 03:01:59.877, True, 3.703, 0.123369
2023/07/11 03:02:00.382, True, 3.316, 0.121691
2023/07/11 03:02:00.886, True, 3.648, 0.122911
2023/07/11 03:02:01.382, True, 3.370, 0.121920
2023/07/11 03:02:01.886, True, 3.646, 0.121080
2023/07/11 03:02:02.390, True, 3.650, 0.121920
2023/07/11 03:02:02.886, True, 3.707, 0.121920
2023/07/11 03:02:03.390, True, 3.314, 0.123369
2023/07/11 03:02:03.893, True, 3.650, 0.120012
2023/07/11 03:02:04.390, True, 3.706, 0.123445
2023/07/11 03:02:04.893, True, 3.314, 0.124132
2023/07/11 03:02:05.397, True, 3.651, 0.121691
2023/07/11 03:02:05.894, True, 3.369, 0.121157
2023/07/11 03:02:06.398, True, 3.644, 0.122377
2023/07/11 03:02:06.902, True, 3.320, 0.121004
2023/07/11 03:02:07.397, True, 3.367, 0.121767
2023/07/11 03:02:07.902, True, 3.652, 0.120012
2023/07/11 03:02:08.405, True, 3.315, 0.120851
2023/07/11 03:02:08.901, True, 3.707, 0.121080
2023/07/11 03:02:09.405, True, 3.312, 0.121996
2023/07/11 03:02:09.910, True, 3.651, 0.122377
2023/07/11 03:02:10.406, True, 3.708, 0.121996
2023/07/11 03:02:10.910, True, 3.643, 0.120241
2023/07/11 03:02:11.414, True, 3.649, 0.120546
2023/07/11 03:02:11.910, True, 3.370, 0.120851
2023/07/11 03:02:12.413, True, 3.646, 0.121767
2023/07/11 03:02:12.909, True, 3.369, 0.122148
2023/07/11 03:02:13.413, True, 3.322, 0.120775
2023/07/11 03:02:13.917, True, 3.316, 0.122225
2023/07/11 03:02:14.421, True, 3.648, 0.121386
2023/07/11 03:02:14.918, True, 3.370, 0.121920
2023/07/11 03:02:15.422, True, 3.647, 0.121157
2023/07/11 03:02:15.925, True, 3.310, 0.121538
2023/07/11 03:02:16.422, True, 3.372, 0.122072
2023/07/11 03:02:16.926, True, 3.653, 0.122072
2023/07/11 03:02:17.430, True, 3.641, 0.123293
2023/07/11 03:02:17.925, True, 3.368, 0.122148
2023/07/11 03:02:18.430, True, 3.650, 0.121843
2023/07/11 03:02:18.934, True, 3.318, 0.118257
2023/07/11 03:02:19.430, True, 3.705, 0.119326
2023/07/11 03:02:19.934, True, 3.314, 0.119554
2023/07/11 03:02:20.437, True, 3.649, 0.120699
2023/07/11 03:02:20.934, True, 3.374, 0.121462
2023/07/11 03:02:21.438, True, 3.641, 0.120775
2023/07/11 03:02:21.942, True, 3.316, 0.119020
2023/07/11 03:02:22.438, True, 3.369, 0.120928
2023/07/11 03:02:22.942, True, 3.648, 0.120089
2023/07/11 03:02:23.446, True, 3.316, 0.121157
2023/07/11 03:02:23.941, True, 3.369, 0.122225
2023/07/11 03:02:24.446, True, 3.653, 0.120623
2023/07/11 03:02:24.950, True, 3.312, 0.120851
2023/07/11 03:02:25.446, True, 3.369, 0.122530
2023/07/11 03:02:25.950, True, 3.648, 0.121538
2023/07/11 03:02:26.454, True, 3.316, 0.120470
2023/07/11 03:02:26.950, True, 3.707, 0.120470
2023/07/11 03:02:27.454, True, 3.316, 0.121386
2023/07/11 03:02:27.958, True, 3.648, 0.119478
2023/07/11 03:02:28.454, True, 3.369, 0.122454
2023/07/11 03:02:28.958, True, 3.648, 0.121920
2023/07/11 03:02:29.462, True, 3.316, 0.120012
2023/07/11 03:02:29.958, True, 3.712, 0.123217
2023/07/11 03:02:30.462, True, 3.316, 0.121538
2023/07/11 03:02:30.966, True, 3.643, 0.120546
2023/07/11 03:02:31.462, True, 3.369, 0.123140
2023/07/11 03:02:31.966, True, 3.316, 0.121462
2023/07/11 03:02:32.470, True, 3.316, 0.123827
2023/07/11 03:02:32.966, True, 3.369, 0.121920
2023/07/11 03:02:33.470, True, 3.316, 0.120241
2023/07/11 03:02:33.966, True, 3.369, 0.120623
2023/07/11 03:02:34.469, True, 3.651, 0.121614
2023/07/11 03:02:34.974, True, 3.644, 0.122377
2023/07/11 03:02:35.478, True, 3.316, 0.121767
2023/07/11 03:02:35.974, True, 3.706, 0.119936
2023/07/11 03:02:36.478, True, 3.316, 0.119173
2023/07/11 03:02:36.974, True, 3.369, 0.120317
2023/07/11 03:02:37.478, True, 3.648, 0.121233
2023/07/11 03:02:37.982, True, 3.316, 0.120470
2023/07/11 03:02:38.478, True, 3.707, 0.122835
2023/07/11 03:02:38.982, True, 3.316, 0.120851
2023/07/11 03:02:39.486, True, 3.317, 0.119860
2023/07/11 03:02:39.990, True, 3.647, 0.120623
2023/07/11 03:02:40.486, True, 3.369, 0.121004
2023/07/11 03:02:40.990, True, 3.648, 0.121309
2023/07/11 03:02:41.486, True, 3.032, 0.120699
2023/07/11 03:02:41.989, True, 3.323, 0.121843
2023/07/11 03:02:42.494, True, 3.639, 0.121004
2023/07/11 03:02:42.990, True, 3.370, 0.120241
2023/07/11 03:02:43.494, True, 3.649, 0.121691
2023/07/11 03:02:43.998, True, 3.647, 0.120012
2023/07/11 03:02:44.494, True, 3.369, 0.118334
2023/07/11 03:02:44.998, True, 3.317, 0.121004
2023/07/11 03:02:45.502, True, 3.315, 0.121691
2023/07/11 03:02:45.998, True, 3.370, 0.121767
2023/07/11 03:02:46.502, True, 3.316, 0.122911
2023/07/11 03:02:47.006, True, 3.648, 0.120546
2023/07/11 03:02:47.502, True, 3.032, 0.122530
2023/07/11 03:02:48.006, True, 3.316, 0.119707
2023/07/11 03:02:48.502, True, 3.370, 0.120928
2023/07/11 03:02:49.006, True, 3.316, 0.118639
2023/07/11 03:02:49.510, True, 3.316, 0.120317
2023/07/11 03:02:50.006, True, 3.369, 0.121233
2023/07/11 03:02:50.510, True, 3.316, 0.123293
2023/07/11 03:02:51.014, True, 3.316, 0.122911
2023/07/11 03:02:51.510, True, 3.369, 0.121691
2023/07/11 03:02:52.014, True, 3.648, 0.120928
2023/07/11 03:02:52.518, True, 3.316, 0.121462
2023/07/11 03:02:53.013, True, 3.708, 0.122759
2023/07/11 03:02:53.518, True, 3.646, 0.119249
2023/07/11 03:02:54.022, True, 3.317, 0.120623
2023/07/11 03:02:54.518, True, 3.706, 0.121004
2023/07/11 03:02:55.022, True, 3.648, 0.122225
2023/07/11 03:02:55.526, True, 3.648, 0.120394
2023/07/11 03:02:56.022, True, 3.369, 0.122301
2023/07/11 03:02:56.526, True, 3.648, 0.120699
2023/07/11 03:02:57.030, True, 3.316, 0.121004
2023/07/11 03:02:57.526, True, 3.377, 0.121614
2023/07/11 03:02:58.029, True, 3.308, 0.120546
2023/07/11 03:02:58.533, True, 3.316, 0.120317
2023/07/11 03:02:59.030, True, 3.370, 0.120394
2023/07/11 03:02:59.533, True, 3.323, 0.119478
2023/07/11 03:03:00.037, True, 3.314, 0.120394
2023/07/11 03:03:00.534, True, 3.365, 0.119707
2023/07/11 03:03:01.038, True, 3.316, 0.121691
2023/07/11 03:03:01.542, True, 3.648, 0.121386
2023/07/11 03:03:02.038, True, 3.370, 0.119020
2023/07/11 03:03:02.542, True, 3.315, 0.121767
2023/07/11 03:03:03.046, True, 3.317, 0.120470
2023/07/11 03:03:03.550, True, 3.647, 0.121996
2023/07/11 03:03:04.046, True, 3.713, 0.121614
2023/07/11 03:03:04.549, True, 3.312, 0.120394
2023/07/11 03:03:05.046, True, 3.706, 0.120851
2023/07/11 03:03:05.550, True, 3.315, 0.119631
2023/07/11 03:03:06.054, True, 3.316, 0.121691
2023/07/11 03:03:06.550, True, 3.370, 0.120775
2023/07/11 03:03:07.054, True, 3.648, 0.122454
2023/07/11 03:03:07.558, True, 3.648, 0.119402
2023/07/11 03:03:08.054, True, 3.370, 0.117800
2023/07/11 03:03:08.558, True, 3.647, 0.116655
2023/07/11 03:03:09.062, True, 3.648, 0.121767
2023/07/11 03:03:09.558, True, 3.370, 0.118715
2023/07/11 03:03:10.062, True, 3.648, 0.120089
2023/07/11 03:03:10.566, True, 3.649, 0.119860
2023/07/11 03:03:11.062, True, 3.367, 0.120699
2023/07/11 03:03:11.566, True, 3.651, 0.119478
2023/07/11 03:03:12.070, True, 3.313, 0.117952
2023/07/11 03:03:12.566, True, 3.708, 0.119783
2023/07/11 03:03:13.070, True, 3.315, 0.121691
2023/07/11 03:03:13.574, True, 3.315, 0.119707
2023/07/11 03:03:14.070, True, 3.706, 0.122072
2023/07/11 03:03:14.574, True, 3.648, 0.120012
2023/07/11 03:03:15.078, True, 3.316, 0.119631
2023/07/11 03:03:15.574, True, 3.369, 0.121538
2023/07/11 03:03:16.078, True, 3.316, 0.119783
2023/07/11 03:03:16.582, True, 3.315, 0.122301
2023/07/11 03:03:17.078, True, 3.707, 0.119936
2023/07/11 03:03:17.582, True, 3.316, 0.118791
2023/07/11 03:03:18.086, True, 3.316, 0.119860
2023/07/11 03:03:18.590, True, 3.651, 0.118868
2023/07/11 03:03:19.086, True, 3.368, 0.120241
2023/07/11 03:03:19.590, True, 3.646, 0.120623
2023/07/11 03:03:20.094, True, 3.316, 0.116121
2023/07/11 03:03:20.590, True, 3.370, 0.121996
2023/07/11 03:03:21.094, True, 3.647, 0.120546
2023/07/11 03:03:21.598, True, 3.648, 0.118486
2023/07/11 03:03:22.094, True, 3.370, 0.120470
2023/07/11 03:03:22.598, True, 3.647, 0.121691
2023/07/11 03:03:23.102, True, 3.652, 0.119631
2023/07/11 03:03:23.598, True, 3.370, 0.118868
2023/07/11 03:03:24.102, True, 3.313, 0.118563
2023/07/11 03:03:24.605, True, 3.315, 0.119402
2023/07/11 03:03:25.110, True, 3.647, 0.120012
2023/07/11 03:03:25.606, True, 3.371, 0.120699
2023/07/11 03:03:26.110, True, 3.646, 0.120623
2023/07/11 03:03:26.606, True, 3.369, 0.121004
2023/07/11 03:03:27.110, True, 3.648, 0.122911
2023/07/11 03:03:27.613, True, 3.321, 0.122530
2023/07/11 03:03:28.110, True, 3.701, 0.121920
2023/07/11 03:03:28.614, True, 3.648, 0.119936
2023/07/11 03:03:29.118, True, 3.316, 0.119249
2023/07/11 03:03:29.614, True, 3.370, 0.121538
2023/07/11 03:03:30.118, True, 3.316, 0.121691
2023/07/11 03:03:30.622, True, 3.316, 0.121462
2023/07/11 03:03:31.118, True, 3.370, 0.122148
2023/07/11 03:03:31.622, True, 3.316, 0.122301
2023/07/11 03:03:32.126, True, 3.648, 0.120317
2023/07/11 03:03:32.622, True, 3.370, 0.120012
2023/07/11 03:03:33.126, True, 3.315, 0.120928
2023/07/11 03:03:33.630, True, 3.316, 0.120012
2023/07/11 03:03:34.126, True, 3.370, 0.119631
2023/07/11 03:03:34.629, True, 3.648, 0.119860
2023/07/11 03:03:35.133, True, 3.315, 0.120470
2023/07/11 03:03:35.629, True, 3.706, 0.119554
2023/07/11 03:03:36.134, True, 3.648, 0.122072
2023/07/11 03:03:36.637, True, 3.316, 0.119173
2023/07/11 03:03:37.133, True, 3.707, 0.120241
2023/07/11 03:03:37.638, True, 3.646, 0.120851
2023/07/11 03:03:38.141, True, 3.316, 0.121614
2023/07/11 03:03:38.638, True, 3.707, 0.120699
2023/07/11 03:03:39.142, True, 3.316, 0.122530
2023/07/11 03:03:39.645, True, 3.649, 0.120851
2023/07/11 03:03:40.141, True, 3.705, 0.120317
2023/07/11 03:03:40.646, True, 3.317, 0.119936
2023/07/11 03:03:41.150, True, 3.648, 0.120241
2023/07/11 03:03:41.646, True, 3.706, 0.118410
2023/07/11 03:03:42.150, True, 3.316, 0.122911
2023/07/11 03:03:42.654, True, 3.315, 0.121157
2023/07/11 03:03:43.150, True, 3.707, 0.122530
2023/07/11 03:03:43.653, True, 3.648, 0.120851
2023/07/11 03:03:44.158, True, 3.316, 0.119783
2023/07/11 03:03:44.654, True, 3.707, 0.121157
2023/07/11 03:03:45.158, True, 3.650, 0.118944
2023/07/11 03:03:45.662, True, 3.316, 0.118639
2023/07/11 03:03:46.158, True, 3.367, 0.121614
2023/07/11 03:03:46.662, True, 3.648, 0.118181
2023/07/11 03:03:47.166, True, 3.316, 0.120623
2023/07/11 03:03:47.669, True, 3.651, 0.117647
2023/07/11 03:03:48.165, True, 3.370, 0.120394
2023/07/11 03:03:48.669, True, 3.315, 0.121843
2023/07/11 03:03:49.174, True, 3.646, 0.119631
2023/07/11 03:03:49.670, True, 3.374, 0.121462
2023/07/11 03:03:50.174, True, 3.318, 0.120775
2023/07/11 03:03:50.678, True, 3.640, 0.121157
2023/07/11 03:03:51.174, True, 3.373, 0.117800
2023/07/11 03:03:51.678, True, 3.649, 0.118563
2023/07/11 03:03:52.181, True, 3.642, 0.120241
2023/07/11 03:03:52.678, True, 3.369, 0.118639
2023/07/11 03:03:53.182, True, 2.986, 0.119783
2023/07/11 03:03:53.686, True, 3.315, 0.122225
2023/07/11 03:03:54.190, True, 3.316, 0.118868
2023/07/11 03:03:54.686, True, 3.711, 0.119249
2023/07/11 03:03:55.190, True, 3.312, 0.120470
2023/07/11 03:03:55.694, True, 3.316, 0.118334
2023/07/11 03:03:56.190, True, 3.706, 0.119402
2023/07/11 03:03:56.694, True, 3.316, 0.119020
2023/07/11 03:03:57.190, True, 3.369, 0.118791
2023/07/11 03:03:57.694, True, 3.317, 0.120699
2023/07/11 03:03:58.198, True, 3.315, 0.121767
2023/07/11 03:03:58.702, True, 3.316, 0.119249
2023/07/11 03:03:59.198, True, 3.370, 0.118868
2023/07/11 03:03:59.702, True, 3.323, 0.120775
2023/07/11 03:04:00.206, True, 3.309, 0.121157
2023/07/11 03:04:00.702, True, 3.369, 0.119860
2023/07/11 03:04:01.206, True, 3.322, 0.119097
2023/07/11 03:04:01.710, True, 3.316, 0.121538
2023/07/11 03:04:02.206, True, 3.366, 0.118944
2023/07/11 03:04:02.710, True, 3.318, 0.119936
2023/07/11 03:04:03.214, True, 3.643, 0.119783
2023/07/11 03:04:03.710, True, 3.370, 0.119707
2023/07/11 03:04:04.214, True, 3.648, 0.118791
2023/07/11 03:04:04.710, True, 3.369, 0.120241
2023/07/11 03:04:05.214, True, 3.648, 0.121309
2023/07/11 03:04:05.718, True, 3.648, 0.119478
2023/07/11 03:04:06.214, True, 3.370, 0.119326
2023/07/11 03:04:06.717, True, 3.647, 0.119783
2023/07/11 03:04:07.222, True, 3.648, 0.120012
2023/07/11 03:04:07.718, True, 3.373, 0.120546
2023/07/11 03:04:08.222, True, 3.644, 0.119707
2023/07/11 03:04:08.726, True, 3.320, 0.117647
2023/07/11 03:04:09.222, True, 3.365, 0.119173
2023/07/11 03:04:09.726, True, 3.316, 0.120470
2023/07/11 03:04:10.222, True, 3.371, 0.121767